Theta_e
314 317 324 325 325 324 323 325 326 327 326 324 324 322 320 322 323 321 322 322 321 321 319 319 318 319 318 318 320 320 320 319 321 319 320 318 321 319 320 325 325 328 334
313 315 320 323 324 324 324 326 326 327 326 324 324 323 324 321 324 322 321 321 320 319 318 316 317 318 317 317 318 320 318 318 321 317 315 311 313 317 321 320 322 324 331
313 313 319 322 323 323 325 327 327 327 326 326 327 324 322 321 319 320 321 320 321 320 318 318 317 317 317 316 317 317 316 314 317 317 316 310 307 316 317 319 319 321 324
312 313 318 320 322 324 325 328 329 328 327 328 323 319 316 315 319 320 322 319 320 319 320 318 318 317 317 316 317 321 318 316 314 317 320 317 316 311 310 315 318 320 322
312 313 318 321 324 325 324 328 331 329 326 330 324 320 319 322 321 320 318 317 319 320 320 319 318 317 318 317 317 317 316 316 314 313 314 314 315 314 311 310 313 318 319
308 314 318 321 324 326 325 327 331 329 326 328 328 323 322 321 318 317 318 318 318 322 320 320 318 318 319 318 317 318 317 315 316 316 315 313 311 311 310 312 313 313 317
307 311 314 319 322 324 325 327 329 328 327 327 326 327 323 322 318 319 318 317 316 315 316 315 314 316 317 318 317 316 316 316 315 314 314 314 313 313 313 312 312 311 316
305 307 314 318 320 323 325 327 327 328 329 328 324 324 325 323 321 321 320 319 316 316 316 316 315 315 317 317 317 316 316 316 315 314 314 315 315 315 314 312 310 310 311
308 309 310 314 317 320 324 326 326 328 327 327 326 324 324 322 321 320 320 318 317 320 317 316 315 315 315 316 316 315 315 315 314 313 314 313 314 314 314 314 314 310 308
308 308 310 312 314 319 324 326 327 327 327 326 326 325 324 323 322 321 319 318 319 318 317 316 316 316 316 317 316 315 315 314 313 313 312 312 312 313 313 313 313 313 311
307 308 309 313 314 319 323 325 326 326 325 325 325 323 323 323 322 321 320 319 319 318 317 317 316 315 315 316 315 315 315 313 311 311 312 310 310 310 310 311 311 311 311
307 308 311 312 313 319 323 324 325 325 325 325 324 322 322 322 321 320 319 319 318 318 317 316 315 315 315 314 313 313 314 312 311 311 313 312 314 310 308 308 308 309 310
306 309 310 311 313 315 320 322 323 323 323 324 324 322 321 320 320 319 319 318 318 317 316 315 314 314 314 313 313 313 313 311 311 311 313 312 312 311 311 311 308 309 311
310 309 308 310 312 316 316 318 318 318 319 322 323 322 321 321 319 319 319 319 318 316 314 313 314 314 314 313 313 312 310 310 311 312 313 313 313 312 311 310 311 310 307
310 311 307 310 312 312 316 317 317 317 318 321 320 320 320 319 319 319 317 316 315 314 313 312 311 311 312 313 309 308 307 307 309 311 313 314 315 316 314 312 312 312 309
310 311 312 311 312 314 314 318 317 317 319 317 319 320 321 319 317 315 314 313 312 311 310 310 309 308 310 307 306 308 306 306 306 307 309 311 313 313 313 313 313 312 310
310 311 310 310 313 314 318 314 317 318 317 316 317 318 317 315 314 314 312 309 308 307 307 307 307 306 305 304 303 305 307 306 306 306 306 306 308 310 310 311 311 311 310
311 309 309 311 316 318 317 315 316 317 317 315 315 316 314 312 311 308 306 305 305 304 304 304 304 303 305 303 302 302 305 305 305 305 305 305 305 306 306 306 307 309 310
306 310 314 314 314 315 318 315 316 316 315 314 313 313 311 308 306 305 304 303 301 301 301 302 302 302 303 302 301 301 302 302 302 304 305 305 304 303 301 305 305 306 307
305 307 309 309 308 311 313 314 313 312 311 311 310 308 307 306 305 304 302 301 300 300 301 302 302 303 302 301 299 300 303 302 302 303 305 304 304 301 299 303 304 304 306
305 306 307 306 306 310 314 313 311 310 310 309 308 306 306 304 303 302 301 301 301 300 300 301 302 302 302 300 298 298 298 298 297 297 298 299 299 299 297 298 304 304 306
304 306 306 306 308 314 313 310 309 307 307 306 306 304 302 303 303 301 300 301 300 298 299 299 297 299 299 299 298 297 296 297 297 296 298 299 297 296 296 297 298 298 301
302 304 305 305 310 312 312 309 307 307 305 305 303 302 302 302 302 300 299 299 298 297 296 295 296 296 298 297 298 296 296 296 297 298 298 297 295 295 296 296 296 297 299
301 301 304 306 307 309 309 306 306 306 304 301 301 301 301 301 300 300 299 297 295 295 294 294 294 295 295 296 297 297 297 296 296 297 296 296 296 295 296 297 297 297 298
301 302 305 306 307 308 307 306 305 304 301 300 300 299 300 297 297 297 296 296 295 294 292 293 295 293 293 295 294 293 293 294 294 294 293 293 293 293 294 295 296 297 297
300 303 305 305 308 310 307 304 303 302 299 298 298 297 296 295 295 295 295 296 295 294 293 293 293 295 294 293 293 292 292 291 291 291 292 292 294 294 296 297 297 296 297
Wind_Speed
12 16 18 18 17 13 11 13 11 9 7 3 4 4 4 3 3 4 7 6 5 4 3 2 4 4 4 4 5 3 4 3 4 4 6 4 7 5 4 5 6 6 6
15 16 19 17 19 18 14 11 11 9 8 5 3 4 4 2 4 4 5 6 5 3 3 1 2 3 4 6 6 5 4 3 3 3 3 5 6 4 9 4 6 7 6
20 18 20 20 19 19 17 15 11 10 9 7 4 4 5 4 3 2 3 4 6 5 4 3 1 1 2 3 4 4 5 4 3 4 1 4 3 10 4 7 4 7 7
16 20 21 20 22 20 18 17 15 10 7 8 5 7 5 5 4 4 4 5 6 6 5 5 5 4 2 2 3 2 2 3 4 4 3 2 2 3 6 3 6 6 7
19 23 23 24 22 20 19 18 18 13 8 7 7 6 4 3 3 3 7 5 4 5 6 6 6 5 3 3 3 4 5 2 2 2 2 3 3 3 3 7 8 9 6
13 20 22 24 20 19 18 18 20 19 15 9 8 9 9 5 4 4 5 3 2 2 5 4 4 3 3 3 3 3 3 4 4 3 3 2 3 3 3 6 9 9 7
14 19 23 21 20 22 22 19 19 17 15 13 10 9 8 7 7 5 4 3 2 1 2 2 2 3 3 3 4 4 5 4 4 5 4 3 4 3 3 3 8 6 8
11 15 24 24 26 25 23 21 19 17 16 14 10 8 8 5 4 5 4 3 3 2 1 1 2 4 4 4 4 3 4 4 4 5 4 4 4 3 3 3 3 9 7
11 10 10 15 17 20 22 22 22 19 17 15 11 9 8 8 6 7 4 4 3 2 2 1 4 6 6 6 6 4 5 5 4 5 5 4 4 4 4 4 4 4 8
10 9 8 8 10 20 19 21 21 20 17 14 12 10 9 8 7 6 6 5 4 3 4 4 5 6 6 6 6 5 6 6 4 4 5 4 3 4 4 3 3 4 4
9 8 7 8 8 15 17 18 18 17 15 13 11 9 8 8 7 6 6 6 4 5 6 6 6 6 6 6 6 7 7 6 6 6 5 7 6 6 4 4 4 5 4
9 9 9 9 8 14 16 18 16 15 15 13 10 9 8 8 8 7 7 7 6 6 6 6 6 6 6 7 7 7 7 6 6 7 8 13 9 7 5 4 6 5 5
8 9 9 8 8 9 16 16 15 15 13 12 12 10 9 8 9 8 8 7 7 7 6 6 7 7 7 7 7 7 6 6 6 7 11 11 10 10 9 9 6 7 6
18 13 4 9 8 10 9 12 11 11 11 12 12 12 12 12 10 8 7 7 7 7 7 7 7 7 6 6 6 6 6 6 7 9 11 11 11 12 11 10 11 8 6
14 13 9 15 13 8 12 13 12 11 11 14 13 14 11 8 8 7 7 7 7 6 7 7 7 6 5 4 5 5 6 7 10 11 10 12 15 19 17 10 11 9 8
11 11 10 12 12 17 7 13 13 12 11 11 14 9 10 9 8 7 7 6 6 6 5 6 6 5 3 6 10 10 10 10 12 12 11 11 16 18 20 22 23 17 12
6 6 3 3 9 13 19 5 13 10 9 9 8 9 9 8 7 7 5 3 3 3 4 5 6 6 6 9 12 15 11 12 12 12 13 13 12 17 16 17 18 21 23
5 7 5 2 7 6 13 10 6 7 10 9 8 8 7 7 6 6 4 2 2 3 4 5 6 6 6 11 13 16 13 12 14 15 15 16 16 15 16 16 18 16 14
5 4 6 5 4 5 8 10 7 8 7 7 8 7 7 8 6 5 4 3 3 3 3 5 7 10 11 14 16 14 11 13 16 15 15 15 16 19 19 17 18 18 18
2 4 5 3 3 4 5 6 5 8 7 7 9 8 8 7 5 5 3 1 2 4 5 8 9 12 12 14 15 13 10 13 11 13 14 18 20 22 17 16 17 19 18
6 6 7 6 6 5 2 7 7 7 7 8 8 8 8 7 5 3 2 3 5 6 6 9 10 12 10 7 12 14 10 9 9 11 12 12 19 19 18 21 17 21 17
6 7 7 6 8 7 6 7 8 7 8 8 8 8 6 4 3 3 4 5 5 6 8 8 6 6 9 13 13 14 15 18 13 15 14 15 22 22 23 18 24 24 18
5 4 3 5 4 3 7 8 4 7 7 8 7 6 4 3 3 3 4 4 5 5 5 5 7 9 10 10 16 18 20 22 16 13 19 26 27 28 25 30 30 26 14
4 2 4 5 4 3 7 7 7 7 8 7 6 4 4 4 5 3 3 3 4 5 4 5 8 10 12 11 10 11 12 18 16 19 16 20 24 28 26 22 18 15 15
6 4 6 5 4 4 7 7 8 8 7 5 3 2 3 3 4 3 2 3 3 4 4 6 9 11 12 12 18 20 15 14 17 20 15 14 13 14 13 12 13 13 13
3 3 4 4 2 3 4 8 8 7 7 5 4 4 4 4 3 4 5 8 10 9 9 14 11 10 17 25 27 29 28 29 29 13 13 13 12 13 13 12 12 12 17
Wind_Direction
170 149 144 137 138 141 129 138 141 156 143 141 130 125 150 150 117 132 129 115 108 86 63 33 8 12 20 347 338 322 335 330 316 333 325 289 283 303 313 315 308 296 276
156 155 148 148 154 154 148 137 154 156 155 149 153 148 153 161 153 145 137 137 138 155 132 80 2 11 6 348 344 353 328 311 350 333 307 344 327 343 338 334 346 350 312
167 165 158 159 156 159 158 151 161 159 162 159 122 94 80 66 88 159 135 167 171 174 175 183 192 323 27 342 327 328 344 320 325 347 126 345 305 325 310 322 321 322 316
172 168 165 164 164 168 162 152 153 158 167 152 145 145 151 157 199 177 161 174 188 194 186 196 199 202 192 300 300 344 339 1 318 339 344 265 243 314 325 338 322 320 315
176 176 171 169 171 162 167 161 157 158 169 157 162 154 155 158 158 121 151 186 202 199 213 212 205 198 199 236 269 308 311 296 281 276 311 330 329 288 290 314 335 323 324
178 175 171 168 166 167 165 166 161 171 170 165 163 168 173 168 162 157 162 175 226 225 226 237 184 192 206 234 261 265 276 280 282 288 288 255 252 289 294 308 321 312 316
170 164 167 169 166 170 176 172 165 168 171 172 162 163 181 169 168 160 160 195 215 201 119 107 173 220 224 237 251 263 265 267 260 263 262 255 257 251 259 293 304 302 316
167 154 167 171 179 178 172 169 166 163 171 174 162 156 156 158 167 170 193 210 179 160 227 251 266 272 264 259 253 247 249 253 263 274 272 263 264 266 263 251 298 306 300
95 91 111 175 176 175 171 166 168 169 174 170 163 168 166 168 177 197 186 172 187 204 178 229 263 271 266 255 250 248 252 248 246 265 274 271 261 266 263 268 266 247 302
94 87 91 99 168 175 165 166 167 168 170 163 170 172 172 170 173 165 171 187 200 217 246 254 257 264 260 252 246 247 244 240 242 241 273 292 295 296 295 294 294 291 285
116 110 80 75 88 158 157 159 161 159 164 163 171 165 165 170 175 182 196 199 204 218 234 242 254 258 259 254 249 247 244 235 235 245 247 264 270 274 268 284 282 277 276
139 115 104 83 71 131 142 150 151 156 165 173 168 167 166 169 175 185 192 196 208 225 231 241 256 260 258 256 253 255 252 236 241 265 270 277 277 276 254 246 265 263 285
115 120 111 113 111 114 130 144 154 165 169 168 168 168 172 171 180 185 190 198 212 228 241 243 249 254 253 254 253 250 239 239 244 257 272 267 255 256 263 267 251 262 266
41 19 82 140 132 135 133 141 157 161 167 169 171 175 183 188 186 181 189 203 210 222 236 240 245 247 252 256 258 253 253 251 254 259 261 254 251 250 258 260 255 246 247
49 30 31 35 15 161 166 167 172 177 171 177 173 186 184 168 162 176 186 200 217 228 231 240 252 256 259 264 289 289 284 278 275 268 262 250 251 253 249 250 248 250 241
35 30 15 21 24 12 270 179 180 188 183 170 183 167 163 156 165 175 194 208 232 245 250 255 259 268 262 287 287 284 283 276 275 276 275 270 269 262 255 250 241 242 248
88 352 31 24 41 10 327 280 189 184 170 162 153 147 146 150 165 174 184 221 255 270 287 290 287 280 270 261 263 263 276 277 276 269 264 263 263 265 263 257 240 238 237
88 160 205 123 84 36 312 322 319 163 149 135 128 125 131 137 131 110 94 45 47 360 321 305 297 288 280 270 269 275 274 270 268 263 261 262 264 256 258 261 260 245 238
42 43 84 89 89 128 271 336 24 73 91 102 107 107 95 85 75 63 53 49 15 340 306 287 285 279 278 268 265 270 278 274 270 266 259 256 254 249 239 244 248 253 251
52 55 43 60 41 308 341 320 111 96 98 92 89 90 85 82 70 71 37 354 308 276 277 278 269 268 275 267 276 282 283 281 277 271 265 250 244 251 234 235 242 248 245
36 39 31 358 331 338 29 106 109 104 99 94 87 79 74 81 67 41 5 322 295 280 274 276 279 280 283 301 295 283 291 281 285 281 279 269 265 258 247 233 239 243 248
21 9 27 25 328 337 111 122 103 119 95 89 80 76 67 50 31 345 306 294 285 278 282 285 294 297 290 283 288 292 285 289 284 277 271 267 265 263 259 251 246 244 241
351 354 83 41 355 144 143 111 101 94 87 84 86 76 53 358 340 323 310 302 289 289 294 299 300 299 295 295 292 283 280 276 271 265 268 271 268 263 260 253 249 241 227
290 286 33 31 10 37 66 99 89 80 78 78 68 53 40 339 328 321 302 305 316 317 305 297 300 303 301 300 299 293 294 288 284 280 274 268 264 259 257 258 245 230 222
310 342 26 12 323 198 122 100 88 81 76 80 69 39 25 15 334 332 302 314 286 245 278 302 310 304 300 299 295 291 292 290 283 284 279 273 265 263 257 247 238 222 210
262 94 54 33 224 35 86 96 88 87 78 41 33 41 28 359 14 348 339 323 302 312 307 304 293 297 286 291 292 294 294 291 286 282 274 269 263 256 255 247 233 210 205